Weather History for Worland, WY

Change the Weather History Date:

Monday, January 7, 2013

  Actual Average Record
Temperature  
Mean Temperature 14 °F 16 °F  
Max Temperature 27 °F 30 °F 55 °F (1966)
Min Temperature 1 °F 3 °F -35 °F (1979)
Degree Days  
Heating Degree Days 51 49  
Month to date heating degree days 398 343  
Since 1 July heating degree days 3140 3706  
Cooling Degree Days 0 0  
Month to date cooling degree days 0 0  
Year to date cooling degree days 0 0  
Moisture  
Dew Point 7 °F    
Average Humidity 75    
Maximum Humidity 92    
Minimum Humidity 57    
Precipitation  
Precipitation 0.00 in 0.00 in 0.27 in (1962)
Month to date precipitation T 0.05  
Year to date precipitation T 0.05  
Sea Level Pressure  
Sea Level Pressure 30.07 in    
Wind  
Wind Speed 3 mph (South)    
Max Wind Speed 12 mph    
Max Gust Speed 13 mph    
Visibility 10 miles    
Events      
T = Trace of Precipitation, MM = Missing Value Source: NWS Daily Summary

Daily Weather History Graph

Daily Weather History Graph

Search for Another Location

Airport:

Trip Planner

Search our weather history database for the weather conditions in past years. The results will help you decide how hot, cold, wet, or windy it might be!

Date:

Astronomy

Jan. 07, 2013 Rise Set
Actual Time 7:45 AM MST 4:50 PM MST
Civil Twilight 7:13 AM MST 5:23 PM MST
Nautical Twilight 6:37 AM MST 5:59 PM MST
Astronomical Twilight 6:02 AM MST 6:34 PM MST
Moon 3:11 AM MST (1/7) 1:05 PM MST (1/7)
Length of Visible Light 10h 10m
Length of Day
9h 04m
Waning Crescent, 22% of the Moon is Illuminated
Jan 7
Waning Crescent
Jan 11
New
Jan 18
First Quarter
Jan 26
Full
Feb 3
Last Quarter

Hourly Weather History & Observations

Time (MST) Temp. Windchill Dew Point Humidity Pressure Visibility Wind Dir Wind Speed Gust Speed Precip Events Conditions
12:53 AM 6.1 °F -4.3 °F 3.0 °F 87% 30.16 in 10.0 mi SSW 5.8 mph - N/A   Clear
1:53 AM 3.9 °F -3.4 °F -0.0 °F 84% 30.16 in 10.0 mi NE 3.5 mph - N/A   Clear
2:53 AM 3.9 °F - -0.0 °F 84% 30.17 in 10.0 mi Calm Calm - N/A   Clear
3:53 AM 5.0 °F - 1.9 °F 87% 30.16 in 10.0 mi Calm Calm - N/A   Clear
4:53 AM 3.9 °F -3.4 °F -0.0 °F 84% 30.16 in 10.0 mi SSW 3.5 mph - N/A   Clear
5:53 AM 6.1 °F -5.6 °F 1.9 °F 83% 30.17 in 10.0 mi SSW 6.9 mph - N/A   Clear
6:53 AM 7.0 °F -3.3 °F 3.0 °F 84% 30.21 in 10.0 mi South 5.8 mph - N/A   Clear
7:53 AM 5.0 °F - 1.0 °F 84% 30.21 in 10.0 mi Calm Calm - N/A   Clear
8:53 AM 5.0 °F -2.1 °F 1.9 °F 87% 30.22 in 10.0 mi WSW 3.5 mph - N/A   Clear
9:53 AM 14.0 °F - 8.1 °F 77% 30.18 in 10.0 mi Calm Calm - N/A   Clear
10:53 AM 19.0 °F - 10.0 °F 68% 30.14 in 10.0 mi Calm Calm - N/A   Clear
11:53 AM 21.9 °F 17.2 °F 10.9 °F 63% 30.10 in 10.0 mi NNW 3.5 mph - N/A   Clear
12:53 PM 21.0 °F 16.2 °F 14.0 °F 74% 30.05 in 10.0 mi East 3.5 mph - N/A   Clear
1:53 PM 25.0 °F - 12.0 °F 58% 30.01 in 10.0 mi Calm Calm - N/A   Clear
2:53 PM 26.1 °F - 14.0 °F 60% 29.99 in 10.0 mi Calm Calm - N/A   Clear
4:53 PM 17.1 °F - 10.9 °F 77% 29.96 in 10.0 mi Calm Calm - N/A   Clear
5:53 PM 17.1 °F 10.0 °F 10.9 °F 77% 29.96 in 10.0 mi North 4.6 mph - N/A   Clear
6:53 PM 10.9 °F - 8.1 °F 88% 29.98 in 10.0 mi Calm Calm - N/A   Clear
7:53 PM 16.0 °F 8.8 °F 10.9 °F 81% 29.97 in 10.0 mi SSE 4.6 mph - N/A   Partly Cloudy
8:53 PM 15.1 °F 5.2 °F 10.0 °F 80% 29.97 in 10.0 mi South 6.9 mph - N/A   Partly Cloudy
9:53 PM 17.1 °F 10.0 °F 10.9 °F 77% 29.94 in 10.0 mi SSE 4.6 mph - N/A   Clear
10:53 PM 17.1 °F 10.0 °F 10.9 °F 77% 29.92 in 10.0 mi SSE 4.6 mph - N/A   Clear
11:53 PM 16.0 °F 8.8 °F 10.0 °F 77% 29.92 in 10.0 mi Variable 4.6 mph - N/A   Clear